Regional Weather Roundup
Issued by NWS

Home | Current Version | Previous Version | Graphics & Text | Print | Product List | Glossary On
Versions: 1 2 3 4 5 6 7 8 9 10 11 12 13 14 15 16 17 18 19 20 21 22 23 24 25 26 27 28 29 30 31 32 33 34 35 36 37 38 39 40 41 42 43 44 45 46 47 48 49 50
801
ASUS45 KCYS 040310
RWRWY

WYOMING REGIONAL WEATHER ROUNDUP
NATIONAL WEATHER SERVICE CHEYENNE WY
900 PM MDT TUE MAY 03 2016

NOTE:  "FAIR" INDICATES FEW OR NO CLOUDS BELOW 12,000 FEET
WITH NO SIGNIFICANT WEATHER AND/OR OBSTRUCTIONS TO VISIBILITY.

WYZ001-040400-
YELLOWSTONE NATIONAL PARK

CITY           SKY/WX    TMP DP  RH WIND       PRES   REMARKS
LK YELLOWSTONE   N/A     39  28  64 NW3       30.32R
W YELLOWSTONE  NOT AVBL

$$
WYZ002>013-054>058-071-098>099-040400-
NORTHERN WYOMING

CITY           SKY/WX    TMP DP  RH WIND       PRES   REMARKS
JACKSON        FAIR      55  23  28 NW6       30.23R
CODY           FAIR      63  30  29 SE6       30.15R
GREYBULL       FAIR      67  23  19 S8        30.09R
WORLAND        FAIR      55  37  50 S8        30.12R
SHERIDAN       FAIR      54  42  64 SW5       30.13R
BUFFALO        FAIR      55  37  50 W8        30.19S
GILLETTE       FAIR      47  40  76 SW6       30.16R
HULETT         FAIR      61  34  36 CALM      30.16S
NEWCASTLE      FAIR      59  32  36 N7        30.15R

$$
WYZ014>020-022>026-101>103-040400-
CENTRAL WYOMING

CITY           SKY/WX    TMP DP  RH WIND       PRES   REMARKS
BIG PINEY      FAIR      49  26  41 NW8       30.25R
PINEDALE       CLOUDY    50  28  43 W5        30.26R
DUBOIS         FAIR      52  27  37 S9        30.26R
LANDER         FAIR      54  34  46 SW7       30.19R
RIVERTON       FAIR      61  30  31 CALM      30.20R
CASPER         FAIR      55  35  47 E8        30.21R
DOUGLAS        FAIR      53  39  59 N5        30.20R

$$
WYZ021-027>030-104>119-040400-
SOUTHERN WYOMING

CITY           SKY/WX    TMP DP  RH WIND       PRES   REMARKS
EVANSTON       FAIR      56  22  26 E8        30.25R
KEMMERER         N/A     54  19  26 SE6       30.28R
FORT BRIDGER   CLEAR     54  27  35 SE8       30.29R
ROCK SPRINGS   FAIR      58  20  22 S3        30.26R
DIXON          FAIR      49  33  55 NE7       30.28R
RAWLINS        FAIR      49  30  48 NE8       30.27R
SARATOGA       FAIR      48  30  49 E8        30.29R
LARAMIE        FAIR      43  34  70 W7        30.29R
CHEYENNE       FAIR      54  34  46 N5        30.25R
TORRINGTON     FAIR      58  38  47 N9        30.14R
PINE BLUFFS    FAIR      46  37  71 NW8       30.20R

$$




USA.gov is the U.S. government's official web portal to all federal, state and local government web resources and services.